Preview of NWS' New Version of Forecast
This preview is not operational and should not be used for support decisions.

Regional Weather Roundup (RWR)

Issued by National Weather Service (NWS)

                            
000
ASUS44 KMEG 242110
RWRTN 
TENNESSEE HOURLY STATE WEATHER ROUNDUP
NATIONAL WEATHER SERVICE MEMPHIS TN
400 PM CDT SUN MAR 24 2019

TNZ002-004-019-021-049-052-054-088>092-242200-
WEST TENNESSEE
  
CITY           SKY/WX    TMP DP  RH WIND       PRES   REMARKS
MEMPHIS INTL   PTSUNNY   71  47  42 W12       30.06F                  
NWS MEMPHIS      N/A     70 N/A N/A MISG        N/A                   
JACKSON        FAIR      72  44  36 SW15      30.06F                  
DYERSBURG      CLOUDY    70  49  47 SW13      30.04F                  
SOMERVILLE     CLOUDY    72  43  35 SW9G18    30.05F                  
COVINGTON      CLOUDY    72  46  40 W14G22    30.04S                  
UNION CITY     PTSUNNY   72  48  43 W15G22    30.01F                  
BOLIVAR        CLOUDY    72  41  33 SW12G18   30.06S                  
PARIS          CLOUDY    70  52  52 SW14      30.04F                  
HUNTINGDON     PTSUNNY   72  46  40 SW15G23   30.04F                  
LEXINGTON      MOSUNNY   70  43  37 S20G26    30.05F                  
SELMER         PTSUNNY   70  45  40 S8G15     30.07F                  
SAVANNAH       PTSUNNY   72  45  37 S12G20    30.08F                  
$$

TNZ008-025-027-028-033-062-065-066-242200-
NORTH MIDDLE TENNESSEE
  
CITY           SKY/WX    TMP DP  RH WIND       PRES   REMARKS
NASHVILLE      PTSUNNY   69  40  34 S7        30.10F                  
DICKSON        CLEAR     68  46  45 S17       30.06F                  
CLARKSVILLE    FAIR      68  45  43 S22G29    30.06F                  
LEBANON        CLOUDY    66  41  39 SW8       30.09F                  
SMYRNA         CLOUDY    68  40  35 S9        30.11F                  
MURFREESBORO   CLOUDY    68  39  34 SW9       30.09F                  
COOKEVILLE     CLOUDY    70  34  26 SW10G17   30.11F                  
GALLATIN       CLOUDY    63  45  51 CALM      30.13F                  
CROSSVILLE     FAIR      67  31  26 S10G23    30.13F                  
ROCKWOOD       PTCLDY    66  30  26 S8G17     30.13S                  
$$

TNZ061-075-076-078-094-096-097-242200-
SOUTH MIDDLE TENNESSEE
  
CITY           SKY/WX    TMP DP  RH WIND       PRES   REMARKS
LAWRENCEBURG   MOCLDY    66  45  45 S9        30.10F                  
LEWISBURG      CLOUDY    68  39  34 SW8G17    30.10F                  
FAYETTEVILLE   SUNNY     68  43  40 CALM      30.11F                  
TULLAHOMA      PTSUNNY   61  46  59 MISG      30.11F                  
WINCHESTER     CLOUDY    66  36  32 W5        30.12S                  
MCMINNVILLE    CLOUDY    66  34  30 SW7G14    30.12S                  
COLUMBIA       PTSUNNY   68  43  40 S16       30.08F                  
SHELBYVILLE    PTSUNNY   66  41  39 SW12G20   30.12S                  
$$

TNZ017-018-042-046-047-242200-
NORTHEAST TENNESSEE
  
CITY           SKY/WX    TMP DP  RH WIND       PRES   REMARKS
TRI CITIES     PTSUNNY   68  27  21 SW15      30.13F                  
ELIZABETHTON   FAIR      68  30  24 NW8G14    30.13R                  
GREENEVILLE    CLEAR     66  30  26 W8        30.13S                  
$$

TNZ012-013-036-069-073-074-242200-
CENTRAL EAST TENNESSEE
  
CITY           SKY/WX    TMP DP  RH WIND       PRES   REMARKS
KNOXVILLE      CLOUDY    69  29  22 W13       30.11F                  
OAK RIDGE      FAIR      70  31  23 VRB6G17   30.12F                  
DOWNTOWN KNOXV SUNNY     70  32  24 W9G17     30.12F                  
GATLINBURG     SUNNY     70  30  23 W6        30.11F                  
MORRISTOWN     SUNNY     68  28  22 NW9       30.11F                  
JACKSBORO      SUNNY     68  30  24 S10       30.14F                  
$$

TNZ083-085-099-242200-
SOUTHEAST TENNESSEE
  
CITY           SKY/WX    TMP DP  RH WIND       PRES   REMARKS
CHATTANOOGA    PTSUNNY   75  28  17 S14       30.11F                  
DAYTON         PTCLDY    70  32  24 S3        30.11F                  
$$

SKY/WX REPORTED AS FAIR MEANS FEW OR NO CLOUDS BELOW
12 THOUSAND FEET.